Location: Cambridge (historical)
(38.6883°N, 119.0140°W)
Time: 17:20:40
(UTC+00:00)

VELOX 1 - Pass Details

Date: 28 September 2021
Orbit: 627 x 642 km, 98.3° (Epoch: 18 October)

Event Time Altitude Azimuth Distance (km) Brightness Sun altitude
Exits shadow 10:20:02 12° 44° (NE) 1,896 ? -39.5°
Drops below altitude 10° 10:20:44 10° 35° (NE) 2,012 ? -39.4°
Sets 10:23:59 0° 9° (N) 2,923 ? -38.8°
